Eugene, OR

7:48 AM PST on November 17, 2019 (GMT -0800)
Mahlon Sweet

Weather History for KEUG - August, 2019

Change the Weather History Date:

Tuesday, August 20, 2019

  Actual Average Record
Temperature  
Mean Temperature 68 °F 67 °F  
Max Temperature 84 °F 82 °F 100 °F (2016)
Min Temperature 52 °F 51 °F 41 °F (2000)
Degree Days  
Heating Degree Days 0 1  
Month to date heating degree days 0 20  
Since 1 June heating degree days 85 213  
Since 1 July heating degree days 10 56  
Cooling Degree Days 3 3  
Month to date cooling degree days 95 69  
Year to date cooling degree days 245 186  
Since 1 June cooling degree days 244 181  
Growing Degree Days 18 (Base 50)    
Moisture  
Dew Point 54 °F    
Average Humidity 65    
Maximum Humidity 93    
Minimum Humidity 37    
Precipitation  
Precipitation 0.00 in 0.03 in 0.67 in (1997)
Month to date precipitation 0.07 0.31  
Year to date precipitation 22.72 25.71  
Sea Level Pressure  
Sea Level Pressure 29.98 in    
Wind  
Wind Speed 7 mph (SW)    
Max Wind Speed 17 mph    
Max Gust Speed 22 mph    
Visibility 10 miles    
Events      
T = Trace of Precipitation, MM = Missing Value Source: NWS Daily Summary

Daily Weather History Graph

Daily Weather History Graph

Search for Another Location

Airport or City:

Astronomy

Aug. 20, 2019 Rise Set
Actual Time 6:22 AM PDT 8:09 PM PDT
Civil Twilight 5:51 AM PDT 8:40 PM PDT
Nautical Twilight 5:13 AM PDT 9:17 PM PDT
Astronomical Twilight 4:32 AM PDT 9:58 PM PDT
Moon 10:50 PM PDT (8/20) 11:14 AM PDT (8/20)
Length of Visible Light 14h 49m
Length of Day
13h 47m
Waning Gibbous, 77% of the Moon is Illuminated
Aug 20
Waning Gibbous
Aug 23
Last Quarter
Aug 30
New
Sep 5
First Quarter
Sep 13
Full

Hourly Weather History & Observations

Time (PDT) Temp. Heat Index Dew Point Humidity Pressure Visibility Wind Dir Wind Speed Gust Speed Precip Events Conditions
12:54 AM 64.0 °F - 55.0 °F 73% 29.95 in 10.0 mi Calm Calm - N/A   Clear
1:54 AM 57.9 °F - 52.0 °F 81% 29.95 in 10.0 mi Calm Calm - N/A   Clear
2:54 AM 57.0 °F - 52.0 °F 83% 29.94 in 10.0 mi SSE 5.8 mph - N/A   Clear
3:54 AM 54.0 °F - 48.9 °F 83% 29.94 in 10.0 mi Calm Calm - N/A   Clear
4:54 AM 54.0 °F - 51.1 °F 90% 29.94 in 10.0 mi Calm Calm - N/A   Clear
5:54 AM 55.0 °F - 51.1 °F 86% 29.94 in 10.0 mi South 3.5 mph - N/A   Clear
6:54 AM 55.9 °F - 53.1 °F 90% 29.96 in 10.0 mi South 5.8 mph - N/A   Scattered Clouds
7:54 AM 61.0 °F - 55.0 °F 81% 29.98 in 10.0 mi South 6.9 mph - N/A   Scattered Clouds
8:54 AM 66.0 °F - 55.9 °F 70% 29.98 in 10.0 mi South 8.1 mph - N/A   Mostly Cloudy
9:54 AM 70.0 °F - 55.9 °F 61% 29.99 in 10.0 mi SW 6.9 mph - N/A   Mostly Cloudy
10:54 AM 73.9 °F - 55.9 °F 53% 29.98 in 10.0 mi SW 9.2 mph - N/A   Mostly Cloudy
11:54 AM 75.9 °F - 57.0 °F 52% 29.98 in 10.0 mi SW 6.9 mph - N/A   Mostly Cloudy
12:54 PM 80.1 °F 80.4 °F 57.0 °F 45% 29.97 in 10.0 mi WSW 6.9 mph - N/A   Mostly Cloudy
1:54 PM 82.9 °F 82.1 °F 55.9 °F 39% 29.95 in 10.0 mi SW 9.2 mph - N/A   Mostly Cloudy
2:54 PM 82.9 °F 81.9 °F 54.0 °F 37% 29.94 in 10.0 mi WSW 9.2 mph - N/A   Mostly Cloudy
3:54 PM 82.0 °F 81.3 °F 54.0 °F 38% 29.95 in 10.0 mi WNW 12.7 mph - N/A   Mostly Cloudy
4:54 PM 81.0 °F 80.5 °F 54.0 °F 39% 29.96 in 10.0 mi WSW 15.0 mph - N/A   Mostly Cloudy
5:54 PM 75.9 °F - 55.0 °F 48% 29.99 in 10.0 mi WSW 13.8 mph - N/A   Mostly Cloudy
6:54 PM 71.1 °F - 54.0 °F 55% 30.01 in 10.0 mi West 9.2 mph - N/A   Mostly Cloudy
7:54 PM 66.9 °F - 53.1 °F 61% 30.03 in 10.0 mi WSW 10.4 mph - N/A   Mostly Cloudy
8:54 PM 66.0 °F - 53.1 °F 63% 30.05 in 10.0 mi SW 5.8 mph - N/A   Mostly Cloudy
9:54 PM 64.0 °F - 52.0 °F 65% 30.06 in 10.0 mi West 4.6 mph - N/A   Scattered Clouds
10:54 PM 61.0 °F - 52.0 °F 72% 30.06 in 10.0 mi SSE 3.5 mph - N/A   Partly Cloudy
11:54 PM 57.0 °F - 50.0 °F 77% 30.06 in 10.0 mi South 4.6 mph - N/A   Clear